Regional Weather Roundup
Issued by NWS Cleveland, OH

Home | Current Version | Previous Version | Graphics & Text | Print | Product List | Glossary On
Versions: 1 2 3 4 5 6 7 8 9 10 11 12 13 14 15 16 17 18 19 20 21 22 23 24 25 26 27 28 29 30 31 32 33 34 35 36 37 38 39 40 41 42 43 44 45 46 47 48 49 50
000
ASUS41 KCLE 201610
RWRCLE
OHIO REGIONAL WEATHER ROUNDUP
NATIONAL WEATHER SERVICE WILMINGTON, OH
1200 PM EDT SUN APR 20 2014

NOTE: "FAIR" INDICATES FEW OR NO CLOUDS BELOW 12,000 FEET WITH NO
SIGNIFICANT WEATHER AND/OR OBSTRUCTIONS TO VISIBILITY.

OHZ001>008-015>018-024>027-034-035-043-044-201700-
   NORTHWEST OHIO

CITY           SKY/WX    TMP DP  RH WIND       PRES   REMARKS
DEFIANCE       SUNNY     63  34  33 S8        30.27F
FINDLAY        SUNNY     65  30  27 VRB6      30.25F
TOLEDO EXPRESS SUNNY     65  30  27 S5        30.26F
TOLEDO METCALF SUNNY     65  30  27 S6        30.27F
LIMA           SUNNY     66  31  27 S7        30.25F
$$

OHZ009>014-019>023-028>033-038-089-201700-
   NORTHEAST OHIO

CITY           SKY/WX    TMP DP  RH WIND       PRES   REMARKS
CLE-HOPKINS    MOSUNNY   69  30  23 S13       30.29F
CLE-LAKEFRONT  SUNNY     66  30  26 SE9       30.26F
CUY CO. ARPT   PTSUNNY   66  28  24 S16       30.30S
LORAIN-ELYRIA  SUNNY     67  34  29 S13       30.28F
ASHTABULA      SUNNY     62  28  27 S13       30.31F
AKRON-CANTON   PTSUNNY   68  27  21 S9        30.29F
WOOSTER        SUNNY     65  33  30 S8        30.29F
MANSFIELD      SUNNY     66  37  34 S13       30.27F
YOUNGSTOWN     MOSUNNY   62  27  26 S6        30.31F
$$

OHZ042-051>053-060>062-070>072-077>081-201700-
  SOUTHWEST OHIO

CITY           SKY/WX    TMP DP  RH WIND       PRES   REMARKS
CINC-COVINGTON MOSUNNY   68  37  32 CALM      30.24F
CINC-LUNKEN    SUNNY     65  41  41 CALM      30.25F
HAMILTON       SUNNY     67  37  33 VRB3      30.26F
DAYTON         PTSUNNY   65  35  33 CALM      30.26F
WRIGHT-PAT AFB SUNNY     64  35  33 VRB5      30.25F
DAYTON GENERAL SUNNY     64  37  36 CALM      30.25F
WILMINGTON     SUNNY     65  37  35 SE5       30.25F
$$

OHZ036-037-039>041-045>050-054>059-063>069-073>076-082>088-201700-
  CENTRAL AND SOUTHEAST OHIO

CITY           SKY/WX    TMP DP  RH WIND       PRES   REMARKS
COLUMBUS       PTSUNNY   67  36  31 VRB7      30.27F
OSU AIRPORT    SUNNY     65  35  33 S6        30.27F
BOLTON FIELD   SUNNY     63  39  42 E6        30.27F
RICKENBACK AFB SUNNY     67  31  25 S5        30.26F
NEWARK         SUNNY     67  37  33 S8        30.26F
MARION         SUNNY     63  34  33 S7        30.27F
LANCASTER      SUNNY     67  39  35 SW5       30.27F
ZANESVILLE     SUNNY     66  31  27 CALM      30.27F
NEW PHILLY     SUNNY     65  26  23 SE9       30.29F
$$



USA.gov is the U.S. government's official web portal to all federal, state and local government web resources and services.